GEESAT-6 01

Last updated on Sat Oct 25 2025 00:02:05 GMT+0000 (Coordinated Universal Time)

1 65713U 25214B 25297.59017728 .00003390 00000+0 40451-3 0 9991 2 65713 49.9861 321.3887 0014171 53.2596 306.9642 14.86502386 4510
UTC large
Height (km)
Speed (km/s)
/
Latitude / Longitude
Inclination (degrees)
Orbital Period (minutes)
Azimuth
Elevation
Range (km)
Doppler Factor

Next 0 passes for location: London (51.5072 / 0.1276)

Sorry there are no passes over London.